Weather History for Corning, AR

Change the Weather History Date:

Friday, December 7, 2012

  Actual Average (KARG) Record (KARG)
Temperature  
Mean Temperature 58 °F -  
Max Temperature 62 °F 49 °F 64 °F (1998)
Min Temperature 55 °F 34 °F 12 °F (2013)
Degree Days  
Heating Degree Days 6    
Growing Degree Days 8 (Base 50)    
Moisture  
Dew Point 55 °F    
Average Humidity 91    
Maximum Humidity 100    
Minimum Humidity 72    
Precipitation  
Precipitation 0.00 in - - ()
Sea Level Pressure  
Sea Level Pressure 29.88 in    
Wind  
Wind Speed 6 mph (SSW)    
Max Wind Speed 13 mph    
Max Gust Speed -    
Visibility 5 miles    
Events Fog    
Averages and records for this station are not official NWS values.
T = Trace of Precipitation, MM = Missing Value Source: NWS Daily Summary

Daily Weather History Graph

Daily Weather History Graph

Search for Another Location

Airport:

Trip Planner

Search our weather history database for the weather conditions in past years. The results will help you decide how hot, cold, wet, or windy it might be!

Date:

Astronomy

Dec. 07, 2012 Rise Set
Actual Time 7:01 AM CST 4:47 PM CST
Civil Twilight 6:32 AM CST 5:15 PM CST
Nautical Twilight 6:00 AM CST 5:47 PM CST
Astronomical Twilight 5:29 AM CST 6:19 PM CST
Moon 12:30 AM CST (12/7) 12:35 PM CST (12/7)
Length of Visible Light 10h 42m
Length of Day
9h 45m
Last Quarter, 38% of the Moon is Illuminated
Dec 7
Last Quarter
Dec 13
New
Dec 19
First Quarter
Dec 28
Full
Jan 4
Last Quarter

Hourly Weather History & Observations

Time (CST) Temp. Dew Point Humidity Pressure Visibility Wind Dir Wind Speed Gust Speed Precip Events Conditions
12:15 AM 55.4 °F 55.4 °F 100% 29.93 in 1.5 mi SSE 5.8 mph - N/A   Mist
12:35 AM 55.4 °F 55.4 °F 100% 29.92 in 2.0 mi SSE 4.6 mph - N/A   Mist
12:55 AM 55.4 °F 55.4 °F 100% 29.92 in 1.8 mi South 3.5 mph - N/A   Mist
1:35 AM 55.4 °F 55.4 °F 100% 29.91 in 0.5 mi SE 4.6 mph - N/A Fog Fog
1:55 AM 55.4 °F 55.4 °F 100% 29.91 in 0.2 mi Calm Calm - N/A Fog Fog
2:15 AM 55.4 °F 55.4 °F 100% 29.91 in 0.2 mi SE 3.5 mph - N/A Fog Fog
2:35 AM 55.4 °F 55.4 °F 100% 29.91 in 0.2 mi Calm Calm - N/A Fog Fog
2:55 AM 55.4 °F 55.4 °F 100% 29.91 in 0.2 mi Calm Calm - N/A Fog Fog
3:15 AM 55.4 °F 55.4 °F 100% 29.91 in 0.5 mi Calm Calm - N/A Fog Fog
3:35 AM 55.4 °F 55.4 °F 100% 29.90 in 0.5 mi Calm Calm - N/A Fog Fog
3:55 AM 55.4 °F 55.4 °F 100% 29.90 in 1.2 mi West 4.6 mph - N/A   Mist
4:35 AM 55.4 °F 55.4 °F 100% 29.90 in 1.8 mi West 4.6 mph - N/A   Mist
4:55 AM 55.4 °F 55.4 °F 100% 29.90 in 1.8 mi SW 3.5 mph - N/A   Mist
5:15 AM 55.4 °F 55.4 °F 100% 29.90 in 1.0 mi Calm Calm - N/A   Mist
5:35 AM 55.4 °F 55.4 °F 100% 29.90 in 0.5 mi SSW 3.5 mph - N/A Fog Fog
5:55 AM 55.4 °F 55.4 °F 100% 29.91 in 1.8 mi South 5.8 mph - N/A   Mist
6:15 AM 55.4 °F 55.4 °F 100% 29.91 in 2.5 mi SSW 5.8 mph - N/A   Mist
6:35 AM 55.4 °F 55.4 °F 100% 29.91 in 2.5 mi SSW 6.9 mph - N/A   Mist
6:55 AM 55.4 °F 55.4 °F 100% 29.91 in 1.8 mi SSW 5.8 mph - N/A   Mist
7:15 AM 55.4 °F 55.4 °F 100% 29.91 in 1.5 mi SW 8.1 mph - N/A   Mist
7:35 AM 55.4 °F 55.4 °F 100% 29.91 in 1.0 mi SSW 5.8 mph - N/A   Mist
8:15 AM 57.2 °F 57.2 °F 100% 29.91 in 1.0 mi SW 9.2 mph - N/A   Mist
8:35 AM 57.2 °F 57.2 °F 100% 29.91 in 2.5 mi SSW 9.2 mph - N/A   Mist
8:55 AM 57.2 °F 57.2 °F 100% 29.91 in 4.0 mi SSW 8.1 mph - N/A   Mist
9:15 AM 57.2 °F 57.2 °F 100% 29.91 in 5.0 mi SSW 11.5 mph - N/A   Mist
9:35 AM 59.0 °F 57.2 °F 94% 29.92 in 7.0 mi SSW 10.4 mph - N/A   Unknown
9:55 AM 59.0 °F 57.2 °F 94% 29.92 in 7.0 mi SW 9.2 mph - N/A   Unknown
10:15 AM 59.0 °F 57.2 °F 94% 29.92 in 9.0 mi SW 10.4 mph - N/A   Unknown
10:35 AM 59.0 °F 55.4 °F 88% 29.91 in 9.0 mi SW 9.2 mph - N/A   Unknown
10:55 AM 60.8 °F 55.4 °F 82% 29.91 in 9.0 mi SW 9.2 mph - N/A   Unknown
11:15 AM 60.8 °F 55.4 °F 82% 29.90 in 10.0 mi SW 9.2 mph - N/A   Unknown
11:35 AM 60.8 °F 55.4 °F 82% 29.88 in 10.0 mi WSW 8.1 mph - N/A   Unknown
11:55 AM 62.6 °F 55.4 °F 77% 29.87 in 10.0 mi SW 6.9 mph - N/A   Unknown
12:15 PM 62.6 °F 53.6 °F 72% 29.87 in 10.0 mi SSW 10.4 mph - N/A   Unknown
12:55 PM 62.6 °F 53.6 °F 72% 29.85 in 10.0 mi SSW 9.2 mph - N/A   Unknown
1:15 PM 62.6 °F 53.6 °F 72% 29.84 in 10.0 mi SSW 10.4 mph - N/A   Unknown
1:35 PM 62.6 °F 53.6 °F 72% 29.84 in 10.0 mi SSW 9.2 mph - N/A   Unknown
1:55 PM 62.6 °F 53.6 °F 72% 29.83 in 10.0 mi SSW 8.1 mph - N/A   Unknown
2:15 PM 62.6 °F 53.6 °F 72% 29.83 in 10.0 mi SSW 8.1 mph - N/A   Unknown
2:35 PM 62.6 °F 53.6 °F 72% 29.83 in 9.0 mi SSW 10.4 mph - N/A   Unknown
2:55 PM 62.6 °F 55.4 °F 77% 29.84 in 9.0 mi SSW 11.5 mph - N/A   Unknown
3:15 PM 62.6 °F 55.4 °F 77% 29.84 in 9.0 mi SSW 10.4 mph - N/A   Unknown
3:35 PM 62.6 °F 55.4 °F 77% 29.84 in 8.0 mi SSW 6.9 mph - N/A   Unknown
3:55 PM 60.8 °F 55.4 °F 82% 29.84 in 8.0 mi SSW 8.1 mph - N/A   Unknown
4:35 PM 59.0 °F 55.4 °F 88% 29.85 in 7.0 mi SSW 6.9 mph - N/A   Unknown
4:55 PM 59.0 °F 55.4 °F 88% 29.85 in 7.0 mi South 5.8 mph - N/A   Unknown
5:15 PM 59.0 °F 55.4 °F 88% 29.85 in 8.0 mi SSW 8.1 mph - N/A   Unknown
5:35 PM 59.0 °F 55.4 °F 88% 29.86 in 9.0 mi South 8.1 mph - N/A   Unknown
5:55 PM 59.0 °F 55.4 °F 88% 29.86 in 9.0 mi South 8.1 mph - N/A   Unknown
6:15 PM 59.0 °F 55.4 °F 88% 29.86 in 8.0 mi South 4.6 mph - N/A   Unknown
6:35 PM 59.0 °F 55.4 °F 88% 29.87 in 7.0 mi SSE 5.8 mph - N/A   Unknown
6:55 PM 57.2 °F 55.4 °F 94% 29.86 in 7.0 mi South 8.1 mph - N/A   Unknown
7:15 PM 59.0 °F 55.4 °F 88% 29.87 in 7.0 mi South 9.2 mph - N/A   Unknown
7:55 PM 59.0 °F 55.4 °F 88% 29.87 in 7.0 mi SSW 9.2 mph - N/A   Unknown
8:15 PM 59.0 °F 55.4 °F 88% 29.87 in 7.0 mi SSW 12.7 mph - N/A   Unknown
8:35 PM 59.0 °F 55.4 °F 88% 29.87 in 7.0 mi SSW 12.7 mph - N/A   Unknown
8:55 PM 59.0 °F 55.4 °F 88% 29.87 in 7.0 mi SW 10.4 mph - N/A   Unknown
9:15 PM 59.0 °F 55.4 °F 88% 29.87 in 6.0 mi SSW 9.2 mph - N/A   Mist
9:35 PM 59.0 °F 55.4 °F 88% 29.87 in 6.0 mi SSW 10.4 mph - N/A   Mist
9:55 PM 59.0 °F 55.4 °F 88% 29.87 in 6.0 mi SSW 8.1 mph - N/A   Mist
10:15 PM 57.2 °F 55.4 °F 94% 29.87 in 6.0 mi SSW 6.9 mph - N/A   Mist
10:35 PM 57.2 °F 55.4 °F 94% 29.87 in 5.0 mi SW 8.1 mph - N/A   Mist
10:55 PM 57.2 °F 55.4 °F 94% 29.88 in 5.0 mi SSW 9.2 mph - N/A   Mist
11:15 PM 57.2 °F 55.4 °F 94% 29.88 in 5.0 mi SSW 9.2 mph - N/A   Mist
11:35 PM 57.2 °F 55.4 °F 94% 29.88 in 5.0 mi SSW 8.1 mph - N/A   Mist
11:55 PM 57.2 °F 55.4 °F 94% 29.88 in 5.0 mi SW 6.9 mph - N/A   Mist